This is the latest recevied weather packets stored in our database for station/object KO4WIL-13. If no packets are shown the sender has not sent any weather packets the latest 10 day(s).
| Time | Temp. | Humidity | Pressure | Rain* | Wind** | Luminosity | Snow |
|---|---|---|---|---|---|---|---|
| 1777862285 | 11.11° C | 58% | 968.5 hPa | 0 mm | - | - | - |
| 1777861983 | 11.11° C | 58% | 968.6 hPa | 0 mm | - | - | - |
| 1777861681 | 11.11° C | 59% | 968.6 hPa | 0 mm | - | - | - |
| 1777861379 | 11.11° C | 59% | 968.5 hPa | 0 mm | - | - | - |
| 1777861077 | 11.11° C | 60% | 968.5 hPa | 0 mm | - | - | - |
| 1777860775 | 11.11° C | 59% | 968.4 hPa | 0 mm | - | - | - |
| 1777860473 | 11.11° C | 59% | 968.4 hPa | 0 mm | - | - | - |
| 1777860171 | 11.11° C | 59% | 968.3 hPa | 0 mm | - | - | - |
| 1777859869 | 11.11° C | 59% | 968.3 hPa | 0 mm | - | - | - |
| 1777859567 | 11.11° C | 59% | 968.3 hPa | 0 mm | - | - | - |
| 1777859265 | 11.11° C | 60% | 968.2 hPa | 0 mm | - | - | - |
| 1777858962 | 10.56° C | 61% | 968.1 hPa | 0 mm | - | - | - |
| 1777858660 | 10.56° C | 62% | 968.2 hPa | 0 mm | - | - | - |
| 1777858358 | 11.11° C | 64% | 968.1 hPa | 0 mm | - | - | - |
| 1777858056 | 11.11° C | 63% | 968.1 hPa | 0 mm | - | - | - |
| 1777857754 | 11.67° C | 61% | 968.2 hPa | 0 mm | - | - | - |
| 1777857452 | 11.67° C | 58% | 968.2 hPa | 0 mm | - | - | - |
| 1777857150 | 12.22° C | 56% | 968.2 hPa | 0 mm | - | - | - |
| 1777856848 | 12.22° C | 56% | 968.3 hPa | 0 mm | - | - | - |
| 1777856546 | 12.22° C | 55% | 968.3 hPa | 0 mm | - | - | - |
| 1777856244 | 12.22° C | 55% | 968.3 hPa | 0 mm | - | - | - |
| 1777855942 | 12.78° C | 55% | 968.3 hPa | 0 mm | - | - | - |
| 1777855641 | 12.78° C | 55% | 968.3 hPa | 0 mm | - | - | - |
| 1777855338 | 12.78° C | 54% | 968.2 hPa | 0 mm | - | - | - |
| 1777855036 | 12.78° C | 54% | 968.2 hPa | 0 mm | - | - | - |
* Rain latest hour (hover to see other rain measurements)
** Current wind speed in m/s (hover to see current wind gust speed)